GW0571 Weather Reports


time (UTC)temp
C
wind
direction
speed
KPH
gust
KPH
rain 1hr
cm
rain 24hr
cm
rain mn
cm
humidity
%
barometer
mb
20260903015733 18 269 6.4 24.1 3.48 1.17 1.17 96
20260903015228 19 303 0.0 16.1 0.71 0.71 0.71 96
20260903014723 20 356 4.8 8.0 0.00 0.58 0.58 96
20260903014223 20 223 1.6 6.4 0.00 0.58 0.58 96
20260903013718 20 234 3.2 8.0 0.00 0.58 0.58 96
20260903013217 20 246 3.2 9.7 0.05 0.58 0.58 96
20260903012716 20 190 3.2 6.4 0.18 0.58 0.58 96
20260903012216 20 148 3.2 9.7 0.18 0.56 0.56 96
20260903011710 20 148 3.2 8.0 0.05 0.56 0.56 96
20260903011204 20 247 3.2 8.0 0.00 0.53 0.53 96
20260903010700 20 133 4.8 9.7 0.00 0.53 0.53 96
20260903010159 20 187 1.6 6.4 0.00 0.53 0.53 96
20260903005658 20 238 4.8 6.4 0.00 0.53 0.53 96
20260903005154 20 176 3.2 8.0 0.00 0.53 0.53 96
20260903004649 20 197 3.2 12.9 0.13 0.53 0.53 96
20260903004144 20 213 3.2 4.8 0.18 0.53 0.53 96
20260903003640 20 138 4.8 11.3 0.05 0.51 0.51 96
20260903003135 20 53 3.2 8.0 0.00 0.51 0.51 96
20260903002630 20 153 6.4 9.7 0.00 0.51 0.51 96
20260903002124 20 217 6.4 9.7 0.00 0.51 0.51 96
20260903001619 20 135 0.0 12.9 0.00 0.51 0.51 96
20260903001113 20 248 1.6 4.8 0.00 0.51 0.51 96
20260903000609 20 236 3.2 6.4 0.00 0.51 0.51 96
20260903000108 20 253 0.0 9.7 0.00 0.51 0.51 96
20260902235607 20 199 4.8 11.3 0.00 0.51 0.51 96
20260902235102 20 231 4.8 9.7 0.00 0.51 0.51 96
20260902234556 20 206 3.2 8.0 0.00 0.51 0.51 96
20260902234055 20 137 4.8 9.7 0.00 0.51 0.51 96
20260902233550 20 153 3.2 8.0 0.00 0.51 0.51 96
20260902233044 20 231 0.0 6.4 0.00 0.51 0.51 96
20260902232544 20 251 1.6 4.8 0.00 0.51 0.51 96
20260902232038 20 235 0.0 4.8 0.00 0.51 0.51 96
20260902231533 20 199 1.6 6.4 0.00 0.51 0.51 96
20260902231032 20 306 0.0 6.4 0.00 0.51 0.51 96
20260902230527 20 227 4.8 6.4 0.00 0.51 0.51 96
20260902230027 20 175 1.6 6.4 0.00 0.51 0.51 96
20260902225522 20 76 0.0 6.4 0.00 0.51 0.51 96
20260902225021 20 171 4.8 6.4 0.00 0.51 0.51 96
20260902224520 21 147 3.2 8.0 0.00 0.51 0.51 96
20260902224017 21 252 3.2 9.7 0.00 0.51 0.51 96
20260902223512 21 128 6.4 8.0 0.00 0.51 0.51 96
20260902223006 21 191 0.0 9.7 0.00 0.51 0.51 96
20260902222505 21 222 3.2 11.3 0.00 0.51 0.51 96
20260902222004 21 224 0.0 8.0 0.00 0.51 0.51 96
20260902221503 21 201 4.8 8.0 0.00 0.51 0.51 96
20260902220954 21 235 1.6 9.7 0.00 0.51 0.51 96
20260902220454 21 256 4.8 8.0 0.00 0.51 0.51 96
20260902215948 21 155 1.6 4.8 0.00 0.51 0.51 96
20260902215444 21 231 3.2 6.4 0.00 0.51 0.51 96
20260902214940 21 209 4.8 8.0 0.00 0.51 0.51 96
20260902214438 21 104 4.8 9.7 0.00 0.51 0.51 96
20260902213933 21 125 3.2 8.0 0.00 0.51 0.51 96
20260902213429 21 103 4.8 6.4 0.00 0.51 0.51 96
20260902212928 21 118 1.6 4.8 0.00 0.51 0.51 96
20260902212424 21 191 1.6 4.8 0.00 0.51 0.51 96
20260902211920 21 230 0.0 3.2 0.00 0.51 0.51 96
20260902211416 21 171 1.6 4.8 0.00 0.51 0.51 96
20260902210911 21 224 3.2 4.8 0.00 0.51 0.51 96
20260902210410 21 304 3.2 8.0 0.00 0.51 0.51 96
20260902205909 21 189 0.0 8.0 0.00 0.51 0.51 96
20260902205404 21 289 3.2 4.8 0.00 0.51 0.51 96
20260902204900 21 213 3.2 6.4 0.00 0.51 0.51 96
20260902204359 21 169 1.6 9.7 0.00 0.51 0.51 96
20260902203855 21 202 4.8 12.9 0.00 0.51 0.51 96
20260902203350 21 246 1.6 6.4 0.00 0.51 0.51 96
20260902202844 21 110 0.0 6.4 0.00 0.51 0.51 96
20260902202340 21 229 0.0 4.8 0.00 0.51 0.51 96
20260902201837 20 162 1.6 4.8 0.00 0.51 0.51 96
20260902201336 20 225 0.0 6.4 0.00 0.51 0.51 96
20260902200832 20 237 3.2 8.0 0.00 0.51 0.51 96
20260902200326 20 336 0.0 14.5 0.00 0.51 0.51 96
20260902195822 20 169 3.2 8.0 0.00 0.51 0.51 96
20260902195321 20 251 3.2 4.8 0.00 0.51 0.51 96
20260902194816 20 80 0.0 9.7 0.00 0.51 0.51 96
20260902194311 20 160 1.6 4.8 0.00 0.51 0.51 96
20260902193807 20 333 0.0 3.2 0.00 0.51 0.51 96
20260902193302 20 222 4.8 4.8 0.00 0.51 0.51 96
20260902192801 20 13 0.0 8.0 0.00 0.51 0.51 96
20260902192300 20 221 3.2 9.7 0.00 0.51 0.51 96
20260902191759 20 186 1.6 6.4 0.00 0.51 0.51 96
20260902191255 20 216 0.0 6.4 0.00 0.51 0.51 96
20260902190750 20 149 0.0 8.0 0.00 0.51 0.51 96
20260902190249 20 139 0.0 8.0 0.00 0.51 0.51 96
20260902185745 20 259 0.0 4.8 0.00 0.51 0.51 96
20260902185241 20 141 3.2 4.8 0.00 0.51 0.51 96
20260902184737 20 260 3.2 4.8 0.00 0.51 0.51 96
20260902184232 20 119 1.6 6.4 0.00 0.51 0.51 96
20260902183727 20 288 4.8 4.8 0.00 0.51 0.51 96
20260902183224 20 144 4.8 11.3 0.00 0.51 0.51 96
20260902182720 20 241 0.0 4.8 0.00 0.51 0.51 96
20260902182216 20 0 0.0 6.4 0.00 0.51 0.51 96
20260902181712 20 234 3.2 8.0 0.00 0.51 0.51 96
20260902181211 20 219 3.2 8.0 0.00 0.51 0.51 96
20260902180706 20 164 6.4 14.5 0.00 0.51 0.51 96
20260902180201 20 352 0.0 12.9 0.00 0.51 0.51 96
20260902175702 20 244 0.0 6.4 0.00 0.51 0.51 96
20260902175158 20 314 3.2 4.8 0.00 0.51 0.51 96
20260902174654 19 269 0.0 8.0 0.00 0.51 0.51 96
20260902174149 19 236 3.2 11.3 0.00 0.51 0.51 96
20260902173644 19 101 3.2 11.3 0.00 0.51 0.51 96
20260902173139 19 228 4.8 9.7 0.00 0.51 0.51 96
20260902172633 19 227 1.6 6.4 0.00 0.51 0.51 96
20260902172132 19 205 1.6 14.5 0.00 0.51 0.51 96
20260902171628 19 295 3.2 6.4 0.00 0.51 0.51 96
20260902171124 20 202 1.6 8.0 0.00 0.51 0.51 96
20260902170620 19 209 3.2 8.0 0.00 0.51 0.51 96
20260902170115 20 24 4.8 12.9 0.00 0.51 0.51 96
20260902165614 20 352 1.6 8.0 0.00 0.51 0.51 96
20260902165109 20 282 3.2 8.0 0.00 0.51 0.51 96
20260902164605 20 176 3.2 4.8 0.00 0.51 0.51 96
20260902164103 20 187 3.2 8.0 0.00 0.51 0.51 96
20260902163559 20 237 0.0 4.8 0.00 0.51 0.51 96
20260902163057 20 269 0.0 3.2 0.00 0.51 0.51 96
20260902162551 20 89 0.0 8.0 0.00 0.51 0.51 96
20260902162047 20 269 0.0 4.8 0.00 0.51 0.51 96
20260902161547 20 322 0.0 4.8 0.00 0.51 0.51 96
20260902161043 20 151 0.0 3.2 0.00 0.51 0.51 96
20260902160538 20 219 0.0 3.2 0.00 0.51 0.51 96
20260902160033 20 84 0.0 4.8 0.00 0.51 0.51 96
20260902155527 20 197 4.8 6.4 0.13 0.51 0.51 96
20260902155026 20 153 1.6 4.8 0.18 0.51 0.51 96
20260902154521 20 130 1.6 8.0 0.23 0.51 0.51 96
20260902154016 20 221 1.6 6.4 0.18 0.48 0.48 96
20260902153514 20 22 0.0 4.8 0.13 0.46 0.46 96
20260902153010 20 89 0.0 4.8 0.13 0.46 0.46 96
20260902152506 20 141 3.2 6.4 0.30 0.43 0.43 96
20260902152001 20 129 0.0 9.7 0.23 0.43 0.43 96
20260902151457 20 136 3.2 3.2 0.13 0.38 0.38 96
20260902150956 20 250 3.2 4.8 0.18 0.38 0.38 96
20260902150453 20 229 4.8 4.8 0.18 0.38 0.38 96
20260902145952 20 137 1.6 4.8 0.05 0.36 0.36 96
20260902145447 20 243 6.4 8.0 0.05 0.33 0.33 96
20260902144942 20 216 4.8 4.8 0.05 0.33 0.33 96
20260902144438 20 209 0.0 3.2 0.18 0.33 0.33 96
20260902143938 20 234 0.0 4.8 0.79 0.33 0.33 96
20260902143433 20 310 0.0 1.6 0.84 0.25 0.25 96
20260902142928 20 124 0.0 3.2 0.66 0.18 0.18 96
20260902142425 20 227 3.2 4.8 0.43 0.13 0.13 96
20260902141920 20 235 3.2 4.8 0.36 0.08 0.08 96
20260902141415 20 129 0.0 3.2 0.13 0.03 0.03 96
20260902140914 20 246 3.2 4.8 0.00 0.00 0.00 96
20260902140410 20 246 6.4 8.0 0.00 0.00 0.00 96
20260902135904 20 196 1.6 8.0 0.00 0.00 0.00 96
20260902135400 20 146 4.8 6.4 0.00 0.00 0.00 96
20260902134858 20 234 1.6 4.8 0.00 0.00 0.00 96
20260902134355 20 182 3.2 8.0 0.00 0.00 0.00 96
20260902133854 21 179 3.2 6.4 0.00 0.00 0.00 96
20260902133349 21 232 3.2 4.8 0.00 0.00 0.00 96
20260902132844 21 208 3.2 8.0 0.00 0.00 0.00 96
20260902132339 21 195 4.8 8.0 0.00 0.00 0.00 96
20260902131835 21 260 4.8 8.0 0.00 0.00 0.00 96
20260902131332 21 235 4.8 6.4 0.00 0.00 0.00 96
20260902130830 21 245 1.6 4.8 0.00 0.00 0.00 96
20260902130327 21 244 3.2 4.8 0.00 0.00 0.00 96
20260902125821 21 198 1.6 4.8 0.00 0.00 0.00 96
20260902125317 21 191 3.2 4.8 0.00 0.00 0.00 96
20260902124813 21 200 0.0 4.8 0.00 0.00 0.00 96
20260902124309 21 231 1.6 4.8 0.00 0.00 0.00 96
20260902123804 20 157 3.2 4.8 0.00 0.00 0.00 96
20260902123300 20 151 1.6 3.2 0.00 0.00 0.00 96
20260902122759 20 209 1.6 3.2 0.00 0.00 0.00 96
20260902122255 20 241 0.0 1.6 0.00 0.00 0.00 96
20260902121754 20 136 1.6 4.8 0.00 0.00 0.00 96
20260902121250 20 199 1.6 1.6 0.00 0.00 0.00 96
20260902120745 20 129 0.0 1.6 0.00 0.00 0.00 96
20260902120242 20 169 0.0 3.2 0.00 0.00 0.00 96
20260902115742 20 243 3.2 4.8 0.00 0.00 0.00 96
20260902115238 20 162 3.2 4.8 0.00 0.00 0.00 96
20260902114734 20 150 1.6 3.2 0.00 0.00 0.00 96
20260902114230 20 237 0.0 6.4 0.00 0.00 0.00 96
20260902113724 20 201 3.2 8.0 0.00 0.00 0.00 96
20260902113219 20 217 0.0 4.8 0.00 0.00 0.00 96
20260902112718 20 147 0.0 1.6 0.00 0.00 0.00 96
20260902112216 20 149 0.0 3.2 0.00 0.00 0.00 96
20260902111711 20 251 0.0 3.2 0.00 0.00 0.00 96
20260902111207 20 213 0.0 4.8 0.00 0.00 0.00 96
20260902110702 19 235 0.0 3.2 0.00 0.00 0.00 96
20260902110158 19 274 1.6 3.2 0.00 0.00 0.00 96
20260902105658 20 204 0.0 3.2 0.00 0.00 0.00 96
20260902105153 19 197 0.0 1.6 0.00 0.00 0.00 96
20260902104648 19 150 0.0 0.0 0.00 0.00 0.00 96
20260902104144 19 224 0.0 0.0 0.00 0.00 0.00 96
20260902103643 19 202 0.0 1.6 0.00 0.00 0.00 96
20260902103138 19 142 0.0 3.2 0.00 0.00 0.00 96
20260902102635 19 129 0.0 0.0 0.00 0.00 0.00 96
20260902102132 19 119 0.0 3.2 0.00 0.00 0.00 96
20260902101627 19 22 0.0 1.6 0.00 0.00 0.00 96
20260902101126 19 186 0.0 1.6 0.00 0.00 0.00 96
20260902100621 20 269 0.0 1.6 0.00 0.00 0.00 96
20260902100116 20 229 0.0 4.8 0.00 0.00 0.00 96
20260902095615 20 231 1.6 3.2 0.00 0.00 0.00 96
20260902095114 20 312 0.0 1.6 0.00 0.00 0.00 96
20260902094610 20 134 0.0 1.6 0.00 0.00 0.00 96
20260902094106 20 113 0.0 0.0 0.00 0.00 0.00 96
20260902093606 20 217 0.0 4.8 0.00 0.00 0.00 96
20260902093100 20 129 0.0 0.0 0.00 0.00 0.00 96
20260902092555 20 129 0.0 0.0 0.00 0.00 0.00 96
20260902092050 20 129 0.0 0.0 0.00 0.00 0.00 96
20260902091545 20 217 0.0 0.0 0.00 0.00 0.00 96
20260902091041 20 217 0.0 1.6 0.00 0.00 0.00 96
20260902090537 20 142 0.0 0.0 0.00 0.00 0.00 96
20260902090036 20 142 0.0 0.0 0.00 0.00 0.00 96
20260902085530 20 230 0.0 0.0 0.00 0.00 0.00 96
20260902085026 20 230 0.0 0.0 0.00 0.00 0.00 96
20260902084522 20 193 1.6 1.6 0.00 0.00 0.00 96
20260902084017 20 240 0.0 3.2 0.00 0.00 0.00 96
20260902083513 20 120 0.0 1.6 0.00 0.00 0.00 96
20260902083007 20 246 0.0 3.2 0.00 0.00 0.00 96
20260902082503 20 184 0.0 3.2 0.00 0.00 0.00 96
20260902081959 20 89 0.0 3.2 0.00 0.00 0.00 96
20260902081455 20 204 0.0 3.2 0.00 0.00 0.00 96
20260902080949 20 112 1.6 1.6 0.00 0.00 0.00 96
20260902080446 20 129 0.0 1.6 0.00 0.00 0.00 96
20260902075945 20 229 0.0 1.6 0.00 0.00 0.00 96
20260902075441 20 212 0.0 3.2 0.00 0.00 0.00 96
20260902074937 20 129 0.0 1.6 0.00 0.00 0.00 96
20260902074432 20 114 0.0 3.2 0.00 0.00 0.00 96
20260902073927 20 142 0.0 0.0 0.00 0.00 0.00 96
20260902073423 20 142 0.0 3.2 0.00 0.00 0.00 96
20260902072919 20 174 0.0 3.2 0.00 0.00 0.00 96
20260902072414 20 142 0.0 3.2 0.00 0.00 0.00 96
20260902071911 20 140 0.0 3.2 0.00 0.00 0.00 96
20260902071410 20 222 1.6 3.2 0.00 0.00 0.00 96
20260902070907 20 225 0.0 3.2 0.00 0.00 0.00 96
20260902070402 20 129 0.0 0.0 0.00 0.00 0.00 96
20260902065901 20 129 0.0 0.0 0.00 0.00 0.00 96
20260902065356 20 129 0.0 0.0 0.00 0.00 0.00 96
20260902064851 20 202 0.0 0.0 0.00 0.00 0.00 96
20260902064347 20 202 0.0 0.0 0.00 0.00 0.00 96
20260902063843 20 217 0.0 1.6 0.00 0.00 0.00 96
20260902063343 20 216 0.0 1.6 0.00 0.00 0.00 96
20260902062842 20 142 0.0 0.0 0.00 0.00 0.00 96
20260902062337 20 142 0.0 0.0 0.00 0.00 0.00 96
20260902061836 20 124 0.0 1.6 0.00 0.00 0.00 96
20260902061332 20 136 0.0 1.6 0.00 0.00 0.00 96
20260902060828 20 161 0.0 3.2 0.00 0.00 0.00 96
20260902060324 20 209 0.0 0.0 0.00 0.00 0.00 96
20260902055819 20 180 0.0 0.0 0.00 0.00 0.00 96
20260902055316 20 235 0.0 1.6 0.00 0.00 0.00 96
20260902054816 20 249 0.0 1.6 0.00 0.00 0.00 96
20260902054311 20 209 0.0 1.6 0.00 0.00 0.00 96
20260902053806 20 173 0.0 3.2 0.00 0.00 0.00 96
20260902053301 20 134 0.0 1.6 0.00 0.00 0.00 96
20260902052800 20 129 0.0 0.0 0.00 0.00 0.00 96
20260902052255 20 89 0.0 0.0 0.05 0.00 0.00 96
20260902051750 20 129 0.0 1.6 0.00 0.00 0.00 96
20260902051249 20 217 0.0 0.0 0.00 0.00 0.00 96
20260902050744 20 217 0.0 0.0 0.00 0.00 0.00 96
20260902050240 20 202 0.0 1.6 0.00 0.00 0.00 96
20260902045739 20 242 3.2 3.2 0.00 0.00 0.00 96
20260902045236 20 235 0.0 3.2 0.00 0.00 0.00 96
20260902044731 20 140 0.0 4.8 0.00 0.00 0.00 96
20260902044226 20 202 0.0 3.2 0.00 0.00 0.00 96
20260902043721 20 219 0.0 3.2 0.00 0.00 0.00 96
20260902043217 20 193 0.0 1.6 0.00 0.00 0.00 96
20260902042716 20 163 0.0 1.6 0.00 0.00 0.00 96
20260902042211 20 342 1.6 3.2 0.00 0.00 0.00 96
20260902041706 20 229 0.0 3.2 0.00 0.00 0.00 96
20260902041201 20 135 0.0 3.2 0.00 0.00 0.00 96
20260902040700 20 326 0.0 1.6 0.00 0.00 0.00 96
20260902040156 20 255 3.2 4.8 0.00 2.59 2.59 96
20260902035654 20 142 0.0 1.6 0.00 2.59 2.59 96
20260902035150 20 147 0.0 1.6 0.00 2.59 2.59 96
20260902034649 20 160 0.0 1.6 0.00 2.59 2.59 96
20260902034148 20 93 0.0 1.6 0.00 2.59 2.59 96
20260902033647 20 114 0.0 3.2 0.00 2.59 2.59 96
20260902033142 20 212 0.0 1.6 0.00 2.59 2.59 96
20260902032641 20 141 0.0 1.6 0.00 2.59 2.59 96
20260902032136 20 113 0.0 1.6 0.00 2.59 2.59 96
20260902031630 20 89 0.0 1.6 0.00 2.59 2.59 96
20260902031126 20 124 0.0 0.0 0.00 2.59 2.59 96
20260902030621 20 124 0.0 1.6 0.00 2.59 2.59 96
20260902030121 20 352 0.0 0.0 0.00 2.59 2.59 96
20260902025621 20 352 0.0 0.0 0.00 2.59 2.59 96
20260902025116 20 352 0.0 0.0 0.00 2.59 2.59 96
20260902024612 20 352 0.0 1.6 0.00 2.59 2.59 96
20260902024106 20 353 0.0 0.0 0.00 2.59 2.59 96
20260902023602 20 353 0.0 0.0 0.00 2.59 2.59 96
20260902023056 20 129 0.0 0.0 0.00 2.59 2.59 96
20260902022556 20 129 0.0 0.0 0.00 2.59 2.59 96
20260902022052 20 129 0.0 0.0 0.00 2.59 2.59 96
20260902021547 20 166 0.0 0.0 0.00 2.59 2.59 96
20260902021042 20 166 0.0 0.0 0.00 2.59 2.59 96
20260902020538 20 166 0.0 1.6 0.00 2.59 2.59 96
20260902020034 20 129 0.0 0.0 0.00 2.59 2.59 96